Humidity-temperature Sensor

Selected Measurement Type: Air Temperature

 
Air Temperature [°C]     6 entries per hour
Showing data from 8/15/2016 (00:00:00 Z) to 8/8/2016 (00:01:00 Z)
Previous Next [ Day | 3-Days | 7-Days ]
First Last
Prev [ Day | 3-Days | 7-Days ] Next
First Last

Start Time:     :
End Time:     :     
Time (in GMT) :00 :50 :40 :30 :20 :10
Previous Next [ Day | 3-Days | 7-Days ]
First Last
Prev [ Day | 3-Days | 7-Days ] Next
First Last


123 => good data
MM => data is determined as missing
-- => data not received/configured
Back to Top Back to Top
8/15/2016 00:00 to 23:10 20.29 20.30 20.36 20.39 20.40 20.41
8/14/2016 23:00 to 22:10 20.44 20.41 20.35 20.35 20.36 20.32
8/14/2016 22:00 to 21:10 20.33 20.31 20.27 20.26 20.25 20.23
8/14/2016 21:00 to 20:10 20.18 20.19 20.15 20.12 20.10 20.08
8/14/2016 20:00 to 19:10 20.07 20.06 20.03 20.00 19.97 19.97
8/14/2016 19:00 to 18:10 19.98 19.94 19.96 19.93 19.87 19.85
8/14/2016 18:00 to 17:10 19.83 19.81 19.80 19.80 19.76 19.74
8/14/2016 17:00 to 16:10 19.76 19.75 19.75 19.74 19.68 19.72
8/14/2016 16:00 to 15:10 -- -- -- -- -- --
8/14/2016 15:00 to 14:10 19.72 19.77 19.70 19.80 19.83 19.67
8/14/2016 14:00 to 13:10 19.62 19.59 19.57 19.57 19.55 19.44
8/14/2016 13:00 to 12:10 19.35 19.34 19.30 19.25 19.22 19.14
8/14/2016 12:00 to 11:10 19.12 19.02 18.98 18.94 18.86 18.82
8/14/2016 11:00 to 10:10 18.77 18.74 18.86 18.99 18.98 18.92
8/14/2016 10:00 to 9:10 18.95 18.99 19.00 18.97 18.87 18.83
8/14/2016 09:00 to 8:10 18.69 18.78 18.90 18.93 19.02 19.04
8/14/2016 08:00 to 7:10 19.11 19.21 19.20 19.18 19.21 19.22
8/14/2016 07:00 to 6:10 19.27 19.43 19.50 19.60 19.61 19.70
8/14/2016 06:00 to 5:10 19.76 19.81 19.67 19.64 19.43 19.45
8/14/2016 05:00 to 4:10 19.46 19.44 19.44 19.46 19.47 19.49
8/14/2016 04:00 to 3:10 19.52 19.53 19.54 19.55 19.58 19.59
8/14/2016 03:00 to 2:10 19.61 19.62 19.64 19.63 19.63 19.62
8/14/2016 02:00 to 1:10 19.62 19.62 19.65 19.69 19.71 19.74
8/14/2016 01:00 to 0:10 19.75 19.79 19.81 19.84 19.92 20.00
8/14/2016 00:00 to 23:10 20.10 20.16 20.10 20.12 19.99 20.13
8/13/2016 23:00 to 22:10 20.06 20.10 19.99 19.88 19.94 19.94
8/13/2016 22:00 to 21:10 19.93 19.94 19.96 19.96 19.80 19.81
8/13/2016 21:00 to 20:10 19.80 19.76 19.73 19.73 19.65 19.70
8/13/2016 20:00 to 19:10 19.63 19.64 19.67 19.68 19.67 19.66
8/13/2016 19:00 to 18:10 19.63 19.64 19.60 19.58 19.55 19.55
8/13/2016 18:00 to 17:10 19.58 19.58 19.54 19.57 19.50 19.51
8/13/2016 17:00 to 16:10 19.51 19.48 19.48 19.45 19.45 19.35
8/13/2016 16:00 to 15:10 19.40 19.34 19.13 19.12 19.13 19.04
8/13/2016 15:00 to 14:10 19.00 19.01 19.02 18.97 18.94 18.97
8/13/2016 14:00 to 13:10 19.00 18.93 18.84 18.85 18.80 18.83
8/13/2016 13:00 to 12:10 18.78 18.74 18.69 18.61 18.62 18.64
8/13/2016 12:00 to 11:10 18.65 18.65 18.66 18.66 18.68 18.64
8/13/2016 11:00 to 10:10 18.63 18.64 18.65 18.66 18.68 18.68
8/13/2016 10:00 to 9:10 18.69 18.69 18.67 18.70 18.71 18.74
8/13/2016 09:00 to 8:10 18.77 18.75 18.75 18.74 18.75 18.78
8/13/2016 08:00 to 7:10 18.80 18.81 18.87 18.89 18.89 18.91
8/13/2016 07:00 to 6:10 18.94 18.96 18.97 18.97 18.97 18.95
8/13/2016 06:00 to 5:10 18.98 19.01 19.00 19.01 19.02 19.04
8/13/2016 05:00 to 4:10 19.05 19.09 19.11 19.12 19.14 19.15
8/13/2016 04:00 to 3:10 19.16 19.15 19.19 19.21 19.22 19.24
8/13/2016 03:00 to 2:10 19.27 19.30 19.33 19.35 19.36 19.39
8/13/2016 02:00 to 1:10 19.40 19.42 19.44 19.46 19.47 19.48
8/13/2016 01:00 to 0:10 19.51 19.55 19.59 19.61 19.73 19.85
8/13/2016 00:00 to 23:10 19.93 19.98 19.97 20.05 20.08 20.09
8/12/2016 23:00 to 22:10 20.04 20.09 20.08 20.01 20.01 19.97
8/12/2016 22:00 to 21:10 19.93 19.87 19.94 19.86 19.87 19.84
8/12/2016 21:00 to 20:10 19.84 19.84 19.80 19.83 19.77 19.73
8/12/2016 20:00 to 19:10 19.74 19.75 19.82 19.77 19.80 19.74
8/12/2016 19:00 to 18:10 19.71 19.66 19.66 19.59 19.60 19.60
8/12/2016 18:00 to 17:10 19.59 19.33 19.22 19.17 19.13 19.08
8/12/2016 17:00 to 16:10 19.08 19.07 19.05 19.01 19.00 19.00
8/12/2016 16:00 to 15:10 19.05 19.02 19.02 18.99 18.97 18.99
8/12/2016 15:00 to 14:10 18.98 18.96 18.94 18.93 18.93 18.93
8/12/2016 14:00 to 13:10 18.94 18.97 18.91 18.91 18.91 18.89
8/12/2016 13:00 to 12:10 18.88 18.85 18.86 18.87 18.93 18.98
8/12/2016 12:00 to 11:10 19.05 19.11 19.05 19.01 18.99 19.02
8/12/2016 11:00 to 10:10 -- -- -- -- -- --
8/12/2016 10:00 to 9:10 18.98 19.01 19.00 19.00 18.97 18.94
8/12/2016 09:00 to 8:10 18.93 18.87 18.90 18.90 18.90 18.89
8/12/2016 08:00 to 7:10 18.88 18.87 18.85 18.84 18.83 18.82
8/12/2016 07:00 to 6:10 18.83 18.85 18.85 18.87 18.88 18.91
8/12/2016 06:00 to 5:10 18.92 18.93 18.93 18.94 18.97 18.98
8/12/2016 05:00 to 4:10 19.00 19.01 18.99 18.98 18.95 18.95
8/12/2016 04:00 to 3:10 18.97 19.00 19.03 19.07 19.09 19.14
8/12/2016 03:00 to 2:10 -- -- -- -- -- --
8/12/2016 02:00 to 1:10 19.38 19.43 19.51 19.58 19.63 19.68
8/12/2016 01:00 to 0:10 19.59 19.65 19.63 19.62 19.59 19.47
8/12/2016 00:00 to 23:10 19.38 19.36 19.36 19.35 19.36 19.38
8/11/2016 23:00 to 22:10 19.46 19.38 19.38 19.45 19.39 19.39
8/11/2016 22:00 to 21:10 19.38 19.36 19.35 19.32 19.32 19.29
8/11/2016 21:00 to 20:10 19.28 19.25 19.25 19.22 19.18 19.18
8/11/2016 20:00 to 19:10 19.19 19.19 19.21 19.21 19.22 19.23
8/11/2016 19:00 to 18:10 19.25 19.31 19.36 19.35 19.31 19.27
8/11/2016 18:00 to 17:10 19.27 19.29 19.33 19.38 19.45 19.51
8/11/2016 17:00 to 16:10 19.55 19.51 19.46 19.48 19.53 19.55
8/11/2016 16:00 to 15:10 -- -- -- -- -- --
8/11/2016 15:00 to 14:10 19.40 19.39 19.38 19.42 19.35 19.36
8/11/2016 14:00 to 13:10 19.32 19.19 19.19 19.15 19.15 19.28
8/11/2016 13:00 to 12:10 19.13 19.15 19.04 19.02 19.01 19.02
8/11/2016 12:00 to 11:10 19.00 18.95 18.95 18.95 18.94 18.94
8/11/2016 11:00 to 10:10 18.94 18.93 18.92 18.90 18.89 18.89
8/11/2016 10:00 to 9:10 18.70 18.68 18.69 18.71 18.74 18.76
8/11/2016 09:00 to 8:10 18.77 18.77 18.77 18.82 18.84 18.86
8/11/2016 08:00 to 7:10 18.88 18.89 18.92 18.91 18.92 18.92
8/11/2016 07:00 to 6:10 18.94 18.96 18.97 18.98 19.01 19.03
8/11/2016 06:00 to 5:10 19.03 19.04 19.04 19.04 19.06 19.07
8/11/2016 05:00 to 4:10 19.09 19.11 19.15 19.19 19.21 19.23
8/11/2016 04:00 to 3:10 19.25 19.26 19.28 19.28 19.30 19.31
8/11/2016 03:00 to 2:10 19.33 19.34 19.37 19.38 19.38 19.40
8/11/2016 02:00 to 1:10 19.36 19.36 19.34 19.33 19.30 19.32
8/11/2016 01:00 to 0:10 19.35 19.38 19.40 19.43 19.46 19.50
8/11/2016 00:00 to 23:10 19.65 19.64 19.84 19.75 19.78 19.77
8/10/2016 23:00 to 22:10 19.74 19.72 19.71 19.69 19.63 19.59
8/10/2016 22:00 to 21:10 19.57 19.53 19.55 19.55 19.53 19.52
8/10/2016 21:00 to 20:10 19.53 19.53 19.54 19.52 19.53 19.52
8/10/2016 20:00 to 19:10 19.52 19.52 19.47 19.46 19.45 19.44
8/10/2016 19:00 to 18:10 19.42 19.40 19.37 19.36 19.36 19.38
8/10/2016 18:00 to 17:10 19.33 19.33 19.32 19.31 19.33 19.32
8/10/2016 17:00 to 16:10 19.35 19.30 19.32 19.30 19.24 19.28
8/10/2016 16:00 to 15:10 19.26 19.21 19.25 19.24 19.23 19.16
8/10/2016 15:00 to 14:10 19.22 19.26 19.24 19.29 19.29 19.28
8/10/2016 14:00 to 13:10 19.31 19.29 19.24 19.28 19.24 19.14
8/10/2016 13:00 to 12:10 19.05 18.97 18.89 18.82 18.81 18.80
8/10/2016 12:00 to 11:10 18.81 18.81 18.81 18.80 18.80 18.80
8/10/2016 11:00 to 10:10 18.81 18.81 18.81 18.80 18.78 18.78
8/10/2016 10:00 to 9:10 18.77 18.76 18.76 18.77 18.75 18.74
8/10/2016 09:00 to 8:10 18.74 18.74 18.75 18.74 18.73 18.71
8/10/2016 08:00 to 7:10 18.69 18.69 18.68 18.70 18.69 18.67
8/10/2016 07:00 to 6:10 18.68 18.73 18.71 18.71 18.75 18.77
8/10/2016 06:00 to 5:10 18.79 18.81 18.83 18.86 18.91 18.92
8/10/2016 05:00 to 4:10 18.95 18.98 18.99 19.01 19.02 19.05
8/10/2016 04:00 to 3:10 19.08 19.09 19.12 19.14 19.14 19.15
8/10/2016 03:00 to 2:10 19.16 19.16 19.18 19.21 19.23 19.24
8/10/2016 02:00 to 1:10 19.27 19.31 19.35 19.40 19.46 19.48
8/10/2016 01:00 to 0:10 19.38 19.40 19.44 19.50 19.61 19.75
8/10/2016 00:00 to 23:10 19.76 19.89 19.75 19.60 19.68 19.80
8/9/2016 23:00 to 22:10 19.77 19.73 19.81 19.80 19.69 19.70
8/9/2016 22:00 to 21:10 19.70 19.72 19.73 19.70 19.66 19.64
8/9/2016 21:00 to 20:10 19.64 19.66 19.65 19.64 19.61 19.64
8/9/2016 20:00 to 19:10 19.64 19.64 19.65 19.68 19.62 19.59
8/9/2016 19:00 to 18:10 19.57 19.56 19.50 19.47 19.44 19.37
8/9/2016 18:00 to 17:10 19.38 19.35 19.33 19.31 19.32 19.26
8/9/2016 17:00 to 16:10 19.24 19.23 19.16 19.21 19.13 19.12
8/9/2016 16:00 to 15:10 19.04 19.01 19.07 19.01 18.99 19.00
8/9/2016 15:00 to 14:10 18.98 18.94 19.00 19.02 18.99 18.98
8/9/2016 14:00 to 13:10 19.03 19.00 18.95 18.89 18.87 18.76
8/9/2016 13:00 to 12:10 18.75 18.68 18.64 18.59 18.58 18.59
8/9/2016 12:00 to 11:10 18.60 18.61 18.61 18.59 18.60 18.62
8/9/2016 11:00 to 10:10 -- -- -- -- -- --
8/9/2016 10:00 to 9:10 18.72 18.72 18.75 18.77 18.77 18.77
8/9/2016 09:00 to 8:10 18.78 18.80 18.81 18.82 18.84 18.84
8/9/2016 08:00 to 7:10 18.85 18.86 18.87 18.89 18.89 18.90
8/9/2016 07:00 to 6:10 18.93 18.93 18.94 18.96 18.96 18.98
8/9/2016 06:00 to 5:10 19.00 19.02 19.06 19.08 19.11 19.11
8/9/2016 05:00 to 4:10 19.10 19.09 19.08 19.07 19.07 19.05
8/9/2016 04:00 to 3:10 19.04 19.04 19.06 19.07 19.09 19.08
8/9/2016 03:00 to 2:10 19.08 19.07 19.08 19.09 19.09 19.09
8/9/2016 02:00 to 1:10 19.11 19.16 19.17 19.19 19.23 19.26
8/9/2016 01:00 to 0:10 19.26 19.27 19.27 19.27 19.30 19.33
8/9/2016 00:00 to 23:10 19.37 19.42 19.41 19.44 19.43 19.46
8/8/2016 23:00 to 22:10 19.47 19.48 19.49 19.43 19.47 19.38
8/8/2016 22:00 to 21:10 19.36 19.34 19.33 19.33 19.33 19.33
8/8/2016 21:00 to 20:10 19.33 19.30 19.30 19.27 19.30 19.29
8/8/2016 20:00 to 19:10 19.29 19.28 19.29 19.31 19.35 19.38
8/8/2016 19:00 to 18:10 19.41 19.38 19.38 19.38 19.37 19.38
8/8/2016 18:00 to 17:10 19.38 19.41 19.36 19.31 19.32 19.32
8/8/2016 17:00 to 16:10 19.35 19.35 19.30 19.05 19.03 18.99
8/8/2016 16:00 to 15:10 19.03 18.98 19.05 19.09 18.96 19.00
8/8/2016 15:00 to 14:10 19.12 19.12 19.01 18.99 18.99 18.95
8/8/2016 14:00 to 13:10 19.09 19.15 19.25 19.28 19.12 19.08
8/8/2016 13:00 to 12:10 18.99 19.06 19.04 18.99 19.05 19.02
8/8/2016 12:00 to 11:10 18.84 18.78 18.77 18.76 18.77 18.75
8/8/2016 11:00 to 10:10 18.74 18.74 18.79 18.80 18.81 18.86
8/8/2016 10:00 to 9:10 18.88 18.91 18.93 18.96 18.97 19.00
8/8/2016 09:00 to 8:10 19.03 19.06 19.07 19.12 19.14 19.15
8/8/2016 08:00 to 7:10 19.18 19.21 19.22 19.32 19.33 19.26
8/8/2016 07:00 to 6:10 19.30 19.37 19.47 19.51 19.60 19.54
8/8/2016 06:00 to 5:10 19.50 19.52 19.57 19.58 19.61 19.64
8/8/2016 05:00 to 4:10 19.67 19.68 19.69 19.69 19.72 19.77
8/8/2016 04:00 to 3:10 19.78 19.75 19.75 19.76 19.73 19.73
8/8/2016 03:00 to 2:10 19.72 19.73 19.74 19.74 19.75 19.74
8/8/2016 02:00 to 1:10 19.75 19.76 19.78 19.79 19.81 19.81
8/8/2016 01:00 to 0:10 19.82 19.83 19.85 19.87 19.87 19.89